(431347) = 2007 BA76

Discovered at Mount Lemmon on 2007-01-28 by Mt. Lemmon Survey.

Orbit

Orbit type: Hilda

Note: WebGL enabled browser required.

epoch2023-02-25.0
epoch JD2460000.5
perihelion date2022-03-05.10903
perihelion JD2459643.60903
argument of perihelion (°)290.20528
ascending node (°)177.66678
inclination (°)2.97208
eccentricity0.1923299
perihelion distance (AU)3.2114360
Tisserand w.r.t. Jupiter3.0
ΔV w.r.t. Earth (km/sec)10.9
semimajor axis (AU)3.9761731
mean anomaly (°)44.36510
mean daily motion (°/day)0.12431000
aphelion distance (AU)4.741
period (years)7.93
P-vector [x]-0.30694389
P-vector [y]0.89140632
P-vector [z]0.33343698
Q-vector [x]-0.95172527
Q-vector [y]-0.28826587
Q-vector [z]-0.10545993
absolute magnitude15.8
phase slope0.15
uncertainty0
referenceMPO 745323
observations used131
oppositions13
arc length (days)6731
first opposition used2004
last opposition used2023
residual rms (arc-secs)0.73
perturbers coarse indicatorM-v
perturbers precise indicator003Ek
first observation date used2004-10-15.0
last observation date used2023-03-21.0
computer nameMPCLINUX
Minimum Orbit Intersection Distances (in AU)
for orbit epoch: 2460000.5, reference: E2023-G86
Mercury2.89864
Venus2.49548
Earth2.22934
Mars1.59707
Jupiter0.47769
Saturn5.29537
Uranus14.5723
Neptune25.5046

Observations

135 total observations over interval: 2004 10 15.27140 – 2023 03 21.432669
These data are available for download (format description).

